Location: ??????
(30.5519°N, 47.7720°E)
Time: 17:56:37
(UTC+00:00)

Cosmos 1602 Rocket - Pass Details

Date: 24 January 2021
Orbit: 604 x 632 km, 82.5° (Epoch: 01 March)

Event Time Altitude Azimuth Distance (km) Brightness Sun altitude
Rises 14:37:45 0° 165° (SSE) 2,844 7.0 -4.8°
Reaches altitude 10° 14:40:06 10° 156° (SSE) 1,947 6.1 -5.2°
Maximum altitude 14:43:59 34° 91° (E) 1,004 4.2 -6.0°
Drops below altitude 10° 14:47:56 10° 26° (NNE) 1,970 5.7 -6.8°
Sets 14:50:18 0° 18° (NNE) 2,883 6.6 -7.3°
